TimeCST,TemperatureF,Dew PointF,Humidity,Sea Level PressureIn,VisibilityMPH,Wind Direction,Wind SpeedMPH,Gust SpeedMPH,PrecipitationIn,Events,Conditions,WindDirDegrees,DateUTC
12:53 AM,37.0,30.0,76,30.33,10.0,East,4.6,-,N/A,,Partly Cloudy,100,2012-11-30 06:53:00
1:53 AM,37.0,30.0,76,30.33,10.0,ESE,5.8,-,N/A,,Partly Cloudy,110,2012-11-30 07:53:00
2:53 AM,36.0,30.0,79,30.31,10.0,ESE,5.8,-,N/A,,Partly Cloudy,110,2012-11-30 08:53:00
3:53 AM,37.9,32.0,79,30.30,10.0,ESE,4.6,-,N/A,,Scattered Clouds,110,2012-11-30 09:53:00
4:00 AM,39.2,32.0,75,30.30,10.0,ESE,3.5,-,N/A,,Mostly Cloudy,110,2012-11-30 10:00:00
4:53 AM,41.0,35.1,79,30.32,10.0,East,4.6,-,N/A,,Overcast,90,2012-11-30 10:53:00
5:53 AM,43.0,36.0,76,30.32,10.0,East,3.5,-,N/A,,Scattered Clouds,90,2012-11-30 11:53:00
6:12 AM,42.8,35.6,76,30.33,10.0,Calm,Calm,-,N/A,,Mostly Cloudy,0,2012-11-30 12:12:00
6:53 AM,41.0,35.1,79,30.35,10.0,East,3.5,-,N/A,,Mostly Cloudy,100,2012-11-30 12:53:00
7:16 AM,44.6,37.4,76,30.34,9.0,ESE,3.5,-,N/A,,Mostly Cloudy,110,2012-11-30 13:16:00
7:53 AM,45.0,37.9,76,30.35,9.0,ESE,4.6,-,N/A,,Mostly Cloudy,120,2012-11-30 13:53:00
8:53 AM,48.0,41.0,77,30.36,10.0,SE,4.6,-,N/A,,Mostly Cloudy,140,2012-11-30 14:53:00
9:53 AM,55.9,44.1,64,30.35,10.0,South,6.9,-,N/A,,Partly Cloudy,180,2012-11-30 15:53:00
10:53 AM,59.0,45.0,60,30.33,10.0,SW,10.4,-,N/A,,Scattered Clouds,220,2012-11-30 16:53:00
11:53 AM,62.1,44.1,52,30.30,10.0,SW,10.4,-,N/A,,Partly Cloudy,230,2012-11-30 17:53:00
12:53 PM,64.0,42.1,45,30.27,10.0,SW,10.4,19.6,N/A,,Partly Cloudy,220,2012-11-30 18:53:00
1:53 PM,64.9,43.0,45,30.24,10.0,SW,10.4,-,N/A,,Partly Cloudy,220,2012-11-30 19:53:00
2:53 PM,64.9,41.0,42,30.23,10.0,SSW,9.2,-,N/A,,Clear,210,2012-11-30 20:53:00
3:53 PM,63.0,42.1,46,30.23,10.0,SSW,4.6,-,N/A,,Partly Cloudy,200,2012-11-30 21:53:00
4:53 PM,57.0,42.1,57,30.23,10.0,South,5.8,-,N/A,,Partly Cloudy,180,2012-11-30 22:53:00
5:53 PM,54.0,42.1,64,30.25,10.0,Calm,Calm,-,N/A,,Clear,0,2012-11-30 23:53:00
6:53 PM,53.1,42.1,66,30.25,10.0,Calm,Calm,-,N/A,,Clear,0,2012-12-01 00:53:00
7:53 PM,50.0,41.0,71,30.26,10.0,Calm,Calm,-,N/A,,Clear,0,2012-12-01 01:53:00
8:53 PM,45.0,39.0,80,30.27,10.0,Calm,Calm,-,N/A,,Clear,0,2012-12-01 02:53:00
9:53 PM,45.0,39.9,82,30.27,10.0,East,5.8,-,N/A,,Clear,100,2012-12-01 03:53:00
10:53 PM,44.1,39.0,82,30.27,10.0,East,4.6,-,N/A,,Partly Cloudy,100,2012-12-01 04:53:00
11:53 PM,45.0,39.9,82,30.27,9.0,East,4.6,-,N/A,,Partly Cloudy,100,2012-12-01 05:53:00